COSMOS 2213

导读

COSMOS 2213是独联体(CIS)于1992年10月20日发射的军用卫星,隶属于“宇宙”(COSMOS)卫星系列。作为冷战后独联体早期航天活动的产物,该卫星延续了苏联宇宙系列的军用功能,主要承担军事相关任务,因涉密属性,具体技术参数与任务细节长期未公开。作为独联体成立初期发射的航天器,它见证了后苏联时代航天体系的过渡,是该时期航天活动的重要印记。

Basic Information
目录编号:
22184
目录名称:
COSMOS 2213
国际标识:
1992-068C
轨道中心:
EARTH
卫星名称:
COSMOS 2213
卫星全名:
--
卫星状态:
在轨 (已飞行12291 天)
发射日期:
1992-10-20 UTC
国别 :
俄罗斯(独联体) (CIS)
星等 :
--
Orbit Information
数据来源 国际轨道数据 AOE轨道数据
星历时间 2026-06-15T07:24:03+0800
7小时前
查看轨道信息
2026-06-12T15:00:00+0800
3天前
查看轨道信息
半长轴 7790.319km 7790.323km
偏心率 0.0003787 0.0003524
轨道倾角 82.600° 82.601°
近地点辐角 126.033° 132.182°
升交点赤经 348.428° 350.135°
平近点角 355.734° 38.675°
近地点 1409.231km 1409.44km
远地点 1415.133km 1414.932km
周期 114.049分钟 114.049分钟
每日圈数 12.626121 12.626111
Detailed Information
使用方式:
暂无
2D Orbit Map
3D Orbit Map
Orbit Altitude Analysis Chart
Orbit Inclination Analysis Chart
Orbit Comprehensive Analysis Chart
View Comprehensive Chart